Paducah, KY

9:22 PM CDT on October 23, 2017 (GMT -0500)
Barkley Regional

Weather History for KPAH - September, 2012

Change the Weather History Date:

Sunday, September 23, 2012

  Actual Average Record
Temperature  
Mean Temperature 53 °F 67 °F  
Max Temperature 68 °F 79 °F 95 °F (2007)
Min Temperature 38 °F 55 °F 37 °F (1995)
Degree Days  
Heating Degree Days 12 2  
Month to date heating degree days 27 15  
Since 1 July heating degree days 27 16  
Cooling Degree Days 0 4  
Month to date cooling degree days 146 163  
Year to date cooling degree days 1927 1476  
Growing Degree Days 2 (Base 50)    
Moisture  
Dew Point 39 °F    
Average Humidity 63    
Maximum Humidity 92    
Minimum Humidity 34    
Precipitation  
Precipitation 0.00 in 0.13 in 2.53 in (1993)
Month to date precipitation 3.82 2.79  
Year to date precipitation 19.94 35.27  
Snow  
Snow 0.00 in 0.00 in T in (2001)
Month to date snowfall 0.0 0.0  
Since 1 July snowfall 0.0 0.0  
Since 1 September snowfall 0.0 0.0  
Snow Depth 0.00 in    
Sea Level Pressure  
Sea Level Pressure 30.25 in    
Wind  
Wind Speed 3 mph (North)    
Max Wind Speed 16 mph    
Max Gust Speed 18 mph    
Visibility 10 miles    
Events      
T = Trace of Precipitation, MM = Missing Value Source: NWS Daily Summary

Daily Weather History Graph

Daily Weather History Graph

Search for Another Location

Airport or City:

Trip Planner

Search our weather history database for the weather conditions in past years. The results will help you decide how hot, cold, wet, or windy it might be!

Date:

Astronomy

Sep. 23, 2012 Rise Set
Actual Time 6:44 AM CDT 6:49 PM CDT
Civil Twilight 6:18 AM CDT 7:15 PM CDT
Nautical Twilight 5:47 AM CDT 7:45 PM CDT
Astronomical Twilight 5:17 AM CDT 8:16 PM CDT
Moon 2:43 PM CDT (9/23) 12:03 AM CDT (9/23)
Length of Visible Light 12h 57m
Length of Day
12h 05m
First Quarter, 60% of the Moon is Illuminated
Sep 23
First Quarter
Sep 29
Full
Oct 8
Last Quarter
Oct 15
New
Oct 21
First Quarter

Hourly Weather History & Observations

Time (CDT) Temp. Dew Point Humidity Pressure Visibility Wind Dir Wind Speed Gust Speed Precip Events Conditions
12:53 AM 46.0 °F 39.0 °F 76% 30.19 in 10.0 mi Calm Calm - N/A   Clear
1:53 AM 45.0 °F 39.0 °F 80% 30.20 in 10.0 mi Calm Calm - N/A   Clear
2:53 AM 41.0 °F 37.9 °F 89% 30.21 in 10.0 mi Calm Calm - N/A   Clear
3:53 AM 41.0 °F 37.0 °F 86% 30.22 in 10.0 mi Calm Calm - N/A   Clear
4:53 AM 39.0 °F 37.0 °F 93% 30.23 in 10.0 mi Calm Calm - N/A   Clear
5:53 AM 39.9 °F 37.0 °F 89% 30.25 in 10.0 mi Calm Calm - N/A   Clear
6:53 AM 39.0 °F 37.0 °F 93% 30.26 in 10.0 mi Calm Calm - N/A   Clear
7:53 AM 46.9 °F 41.0 °F 80% 30.28 in 8.0 mi Calm Calm - N/A   Clear
8:53 AM 54.0 °F 44.1 °F 69% 30.29 in 10.0 mi North 3.5 mph - N/A   Clear
9:53 AM 59.0 °F 39.0 °F 48% 30.29 in 10.0 mi NNW 3.5 mph - N/A   Clear
10:53 AM 61.0 °F 37.0 °F 41% 30.29 in 10.0 mi Variable 4.6 mph - N/A   Clear
11:53 AM 64.9 °F 39.0 °F 39% 30.28 in 10.0 mi NW 8.1 mph - N/A   Clear
12:53 PM 66.0 °F 39.9 °F 38% 30.27 in 10.0 mi North 6.9 mph - N/A   Clear
1:53 PM 66.9 °F 37.9 °F 34% 30.25 in 10.0 mi North 4.6 mph - N/A   Clear
2:53 PM 66.9 °F 37.0 °F 33% 30.23 in 10.0 mi NNE 9.2 mph 18.4 mph N/A   Clear
3:53 PM 66.9 °F 37.0 °F 33% 30.22 in 10.0 mi Variable 5.8 mph 16.1 mph N/A   Clear
4:53 PM 66.0 °F 37.9 °F 36% 30.22 in 10.0 mi North 5.8 mph - N/A   Clear
5:53 PM 64.9 °F 37.9 °F 37% 30.22 in 10.0 mi NNE 8.1 mph - N/A   Clear
6:53 PM 59.0 °F 39.0 °F 48% 30.23 in 10.0 mi Calm Calm - N/A   Clear
7:53 PM 54.0 °F 39.9 °F 59% 30.25 in 10.0 mi Calm Calm - N/A   Clear
8:53 PM 52.0 °F 41.0 °F 66% 30.26 in 10.0 mi Calm Calm - N/A   Clear
9:53 PM 48.9 °F 42.1 °F 77% 30.27 in 10.0 mi Calm Calm - N/A   Clear
10:53 PM 46.0 °F 41.0 °F 83% 30.27 in 10.0 mi Calm Calm - N/A   Clear
11:53 PM 45.0 °F 41.0 °F 86% 30.26 in 10.0 mi Calm Calm - N/A   Clear